Wind_Speed
16 15 14 13 12 12 12 12 11 11 12 12 12 11 11 11 12 12 13 14 14 15 15 15 15 16 16 17 17 18 18 19 19 19 19 19 20 20 21 21 21 21 22 23 24 25 26 27 27 27 25 24 22 22 22 22 23 23 23 23 23 22 23 23 24 24 24 23 22
16 15 14 13 13 12 12 12 12 12 13 13 12 12 12 12 13 13 14 15 15 15 15 15 15 16 17 17 18 18 19 19 19 19 20 20 20 21 21 20 20 21 21 22 23 24 25 26 27 27 25 23 23 23 23 23 23 23 24 24 23 22 21 22 22 23 23 22 22
16 15 14 14 13 13 13 13 14 14 14 13 13 13 13 13 14 15 15 15 15 15 15 15 16 16 17 18 18 19 19 19 19 20 20 21 21 21 20 20 20 20 21 22 23 24 25 26 27 26 24 24 24 24 24 24 23 24 24 23 22 22 21 21 21 22 22 22 22
17 16 15 14 14 14 14 14 15 15 14 14 14 14 14 15 15 15 15 15 15 15 15 15 16 16 17 18 19 19 19 19 20 20 21 21 21 21 20 20 20 20 21 22 23 24 25 26 26 26 25 25 24 24 23 24 24 24 24 23 23 22 21 21 21 21 21 22 22
17 16 15 15 14 14 15 15 15 15 14 14 14 14 15 15 15 15 15 15 15 14 14 15 16 17 17 18 19 19 19 20 20 21 21 22 21 21 20 19 20 20 21 22 23 24 25 25 26 26 25 25 24 24 23 24 25 26 25 25 24 22 21 21 21 22 22 22 23
17 16 15 14 14 15 15 15 15 15 14 14 14 14 14 13 13 13 14 14 14 14 14 15 16 17 17 18 19 19 20 20 21 21 22 22 21 20 20 19 19 20 21 22 22 23 24 25 26 25 25 24 24 24 24 25 26 27 27 27 26 24 22 22 21 22 23 24 26
17 16 15 15 15 16 16 16 15 14 14 13 13 13 12 12 12 12 13 13 13 14 14 15 16 17 17 18 18 19 20 21 21 22 22 21 21 20 20 19 19 20 21 21 22 23 24 25 25 25 24 24 24 25 25 26 27 28 28 29 28 27 25 24 23 23 24 26 27
17 16 16 16 16 16 16 16 15 14 13 13 12 12 11 11 11 12 12 12 13 13 14 15 16 17 17 18 19 19 20 21 21 22 21 21 21 20 20 19 20 20 21 21 22 23 24 24 25 25 25 25 25 25 27 27 28 29 29 29 29 28 26 25 24 24 25 26 27
18 17 17 17 17 17 16 15 14 14 13 13 12 12 11 11 11 11 12 12 13 13 14 15 16 17 17 18 19 20 20 21 21 21 21 21 20 20 20 20 20 20 21 21 22 23 24 24 25 25 25 25 26 27 28 28 29 29 29 29 29 28 27 26 25 25 26 26 27
19 18 18 18 17 16 15 15 14 13 13 13 12 12 11 11 11 11 12 12 13 14 15 15 16 17 17 18 19 19 20 21 21 21 21 20 20 20 20 20 20 21 21 21 22 23 23 24 25 25 25 26 27 28 28 28 28 29 29 29 28 28 27 26 25 25 26 26 27
19 19 18 18 17 16 15 14 14 14 13 13 13 12 11 11 11 11 11 12 13 14 15 16 16 17 17 18 19 20 20 21 21 21 20 20 20 20 20 20 20 21 21 22 22 22 23 24 25 25 26 26 27 27 28 28 28 28 29 28 28 28 27 26 25 25 26 27 27
19 18 18 17 16 15 15 15 14 14 14 14 13 12 11 11 11 11 11 12 14 15 15 16 16 17 18 18 19 20 20 20 20 20 20 20 20 20 20 20 20 21 21 21 22 22 23 24 24 25 26 26 27 27 28 28 28 29 29 28 28 27 27 26 25 25 26 27 28
19 18 17 16 16 15 15 15 15 15 14 14 13 12 12 11 11 11 12 13 14 15 16 16 17 17 18 18 19 19 20 20 20 20 20 20 20 20 20 20 20 21 21 21 21 21 22 23 24 25 26 27 27 27 28 28 28 29 29 28 28 27 26 26 25 26 26 27 28
19 18 18 17 16 16 16 16 15 15 14 14 13 12 12 12 12 12 13 14 15 16 16 16 17 17 17 18 19 19 19 20 20 20 20 20 20 20 20 21 20 20 21 21 21 21 22 23 24 25 26 27 28 28 28 28 29 29 29 28 27 26 26 25 25 25 26 27 28
20 19 18 17 17 16 16 16 16 15 15 14 13 13 12 12 12 13 14 15 15 16 16 16 17 17 17 18 18 19 19 19 20 20 20 20 20 20 20 20 20 20 20 20 21 21 22 23 24 25 26 27 28 28 29 29 29 29 29 28 27 26 25 24 24 25 26 27 28
21 20 19 18 17 17 17 16 16 15 15 15 14 13 13 13 13 13 14 14 15 15 16 17 17 17 18 18 18 19 19 19 20 20 20 20 20 20 20 20 20 20 20 21 21 22 22 23 24 25 26 27 28 29 29 30 30 31 30 29 27 25 24 23 23 23 24 26 27
21 20 19 19 18 18 17 17 16 16 15 15 14 14 13 13 13 13 14 14 15 15 16 17 17 18 18 18 18 19 19 20 20 20 20 21 21 21 21 20 20 20 20 21 22 23 23 24 24 25 26 27 28 29 30 30 31 32 31 30 27 25 23 22 22 22 22 24 26
22 21 20 19 19 18 18 17 16 16 15 15 14 14 13 13 13 14 14 14 15 16 17 17 17 18 18 19 19 19 19 20 20 20 21 21 21 21 21 20 20 20 20 21 22 23 24 25 25 26 27 27 28 29 29 30 31 32 32 30 28 26 24 23 21 21 21 22 24
23 21 20 20 19 18 18 17 16 16 16 15 15 14 14 14 14 14 14 14 15 15 16 17 17 18 18 19 19 19 19 20 20 21 21 21 21 21 21 20 20 20 21 22 23 24 25 25 26 27 27 28 28 28 29 30 31 32 32 30 28 27 26 24 22 21 21 21 22
23 22 21 20 19 18 17 17 16 16 16 15 15 15 14 14 14 14 15 15 15 15 16 16 17 18 18 18 19 19 20 20 20 21 21 21 21 21 20 20 21 21 22 23 24 25 25 26 27 27 28 28 28 28 29 30 31 31 31 30 28 28 27 26 24 23 22 22 23
23 22 21 20 19 18 17 16 16 16 16 16 16 15 15 14 14 15 15 15 14 14 15 16 16 17 18 18 19 19 20 20 20 21 21 21 21 21 20 21 21 22 23 24 25 25 26 27 27 27 27 28 28 29 30 31 31 31 30 29 28 28 27 27 26 25 25 25 25
23 22 20 19 18 18 17 16 16 17 17 17 16 15 15 15 15 15 14 14 14 14 14 14 15 16 17 18 18 19 19 19 20 20 21 21 21 21 20 21 22 23 24 25 26 26 27 27 27 27 27 28 29 29 30 31 31 31 30 30 29 28 28 28 27 27 27 27 28
23 21 20 19 18 18 17 17 17 18 18 17 16 16 15 15 14 14 13 13 13 13 13 13 14 15 16 17 17 18 19 19 20 20 20 20 20 21 21 21 23 24 25 26 26 27 27 27 27 27 27 28 29 30 30 30 31 31 30 30 30 30 29 29 28 28 29 29 30
22 21 20 19 19 18 18 18 18 18 18 17 16 15 14 14 13 13 13 12 12 11 12 12 13 14 15 16 17 17 18 19 20 20 20 20 20 21 21 22 23 24 25 26 27 26 26 25 25 26 26 27 28 29 30 30 30 31 31 31 30 30 30 30 29 29 30 31 32
22 21 20 20 20 19 19 19 19 19 18 17 15 15 14 13 13 12 12 11 11 10 11 12 13 14 15 16 16 17 17 18 19 20 20 21 21 21 22 23 24 25 26 26 26 25 23 23 24 25 26 27 28 29 30 30 31 31 31 30 30 30 30 30 31 31 32 33 34
22 21 21 21 21 21 20 20 20 19 17 16 15 14 13 12 12 12 11 11 10 10 10 11 13 14 15 15 16 17 17 18 18 19 21 21 22 23 23 24 24 25 25 26 25 24 23 23 24 25 26 27 28 28 29 30 31 31 30 30 29 29 30 30 31 33 34 35 36
23 22 22 22 22 22 21 21 20 18 17 16 15 13 13 12 12 11 11 11 10 10 10 11 13 14 15 15 16 17 17 18 18 19 20 22 23 23 23 24 24 25 25 25 24 23 23 24 24 24 25 26 27 28 29 30 30 30 30 29 29 29 29 30 31 33 34 36 37
24 23 23 22 22 22 22 21 20 18 17 15 14 13 12 12 12 12 11 11 10 10 11 12 12 14 15 16 16 17 17 18 19 20 21 22 22 23 23 24 24 24 24 24 23 23 23 23 24 24 24 25 26 28 29 29 30 30 29 29 29 28 29 29 31 32 34 35 37
25 24 23 23 23 23 22 21 20 18 16 14 13 13 12 12 12 12 11 11 10 11 11 12 13 14 15 16 16 17 17 18 19 20 21 22 23 23 23 24 24 25 24 23 23 23 23 23 23 24 24 25 26 27 28 29 30 29 29 28 28 28 28 29 30 31 32 34 35
25 24 24 24 23 23 22 21 19 17 15 14 13 13 13 13 13 12 12 11 11 11 11 12 14 15 16 16 17 17 18 19 19 20 21 22 23 23 24 24 25 25 25 24 23 22 22 22 23 24 25 25 26 27 28 29 29 28 28 27 28 28 29 29 30 31 32 32 33
26 25 25 24 24 23 22 20 18 16 15 14 14 14 14 14 13 12 12 11 11 11 11 12 14 16 16 17 17 18 19 19 20 20 21 22 23 24 25 25 25 26 26 24 23 22 22 22 23 24 25 26 27 28 29 29 29 29 28 29 29 30 30 31 31 31 31 31 32
26 25 25 24 24 23 22 20 18 16 15 15 14 14 14 14 13 12 11 11 11 11 12 13 15 16 17 17 18 18 19 19 20 21 22 22 23 24 25 26 26 26 26 24 22 22 22 23 24 25 26 27 27 29 30 30 30 30 30 31 32 33 33 33 33 32 32 31 31
27 26 25 25 24 23 21 19 18 17 16 15 15 15 15 14 14 13 12 11 11 12 13 14 15 16 17 17 18 19 19 20 21 21 22 23 24 25 26 26 27 26 25 23 23 23 23 24 24 25 26 27 28 29 30 30 31 31 31 32 33 34 35 35 34 33 33 32 31
27 26 25 25 24 23 21 20 18 17 16 16 16 16 15 15 14 13 12 11 11 12 13 14 15 16 17 18 18 19 20 20 21 22 22 23 24 25 26 27 27 26 25 23 23 23 24 24 25 26 27 28 29 29 30 31 31 32 32 33 34 34 34 35 34 34 34 33 31
27 26 26 25 24 23 21 20 19 18 17 17 17 16 16 15 14 13 12 11 11 13 14 15 15 16 17 18 19 19 20 21 21 22 22 23 24 25 26 27 28 27 25 24 24 24 24 25 25 26 27 28 28 29 30 31 31 32 32 32 31 31 31 31 32 32 31 30 29
28 27 26 25 24 23 22 21 20 19 18 18 18 17 16 15 14 13 12 11 12 13 15 15 16 17 18 18 19 19 19 20 21 22 23 23 24 26 27 28 28 28 26 25 24 24 25 25 26 27 27 28 28 29 30 30 30 29 27 26 26 25 26 26 26 26 26 25 24
28 27 26 26 25 24 23 21 21 20 20 20 19 18 16 15 13 12 12 12 13 14 15 15 16 17 18 18 19 19 19 19 21 22 23 24 25 26 27 28 28 28 26 25 24 24 25 25 26 26 27 28 29 29 29 28 26 23 22 21 21 22 22 22 22 21 21 20 20
28 27 26 26 25 24 23 22 22 21 21 20 19 17 16 14 13 13 12 12 13 15 15 16 17 17 18 18 18 19 19 20 20 22 23 24 25 25 26 27 27 27 26 25 25 25 25 25 26 26 26 28 29 29 28 25 22 19 18 19 20 20 20 19 19 18 18 18 19
28 27 27 26 26 25 24 23 23 22 21 20 19 17 15 14 14 13 13 12 13 14 15 16 17 17 17 18 18 19 20 20 21 21 23 24 25 25 25 25 26 26 26 25 24 24 25 25 25 25 26 27 29 29 27 22 18 17 18 20 19 19 18 17 17 17 18 19 19
29 28 27 26 26 25 25 24 23 22 21 20 18 17 15 14 14 13 13 13 14 15 16 17 17 17 17 18 19 20 21 21 21 21 22 23 24 24 24 24 24 25 25 24 24 23 23 23 24 24 25 27 29 29 26 19 16 17 20 21 19 17 16 17 18 18 19 20 21
29 28 27 27 26 26 25 24 24 22 21 20 18 17 15 14 13 13 14 14 15 15 16 17 17 18 18 18 19 20 21 22 22 22 22 23 23 23 23 23 23 23 23 23 22 22 22 22 22 23 24 26 28 29 25 18 16 19 21 20 17 15 15 17 19 20 20 21 22
Wind_Direction
241 242 243 245 246 249 253 257 260 263 266 268 270 271 272 273 275 277 279 281 283 285 288 292 294 297 300 302 304 306 307 308 309 310 311 312 313 314 314 315 316 318 319 321 322 323 324 326 326 326 324 321 319 317 317 318 319 320 321 321 320 319 319 319 320 322 324 326 327
240 241 242 242 244 247 251 254 256 259 262 266 269 270 271 271 272 274 276 277 280 283 287 290 293 296 298 300 302 304 305 305 306 307 309 310 312 313 314 314 315 317 318 320 321 322 323 325 326 325 323 321 319 318 318 319 321 321 322 322 321 320 319 320 320 322 323 325 327
239 239 239 239 240 241 244 248 250 254 258 262 265 266 266 267 268 270 272 275 278 281 284 288 291 294 296 298 300 301 302 303 304 305 307 309 311 312 313 314 315 316 317 319 320 321 322 323 324 323 322 320 319 319 319 320 321 322 322 322 321 321 319 318 319 321 323 324 326
237 237 236 235 236 238 242 246 250 253 257 260 262 262 262 263 265 267 271 274 277 279 282 286 290 292 295 297 298 299 300 300 301 303 305 307 310 311 312 313 314 315 316 318 319 320 321 322 323 322 321 320 320 319 318 319 320 321 322 322 321 320 318 317 319 320 321 323 324
235 234 234 234 236 239 244 248 251 254 258 260 261 262 262 263 265 267 270 273 276 279 282 286 289 292 294 296 298 298 298 299 300 301 303 306 309 311 312 312 313 314 315 316 317 318 319 321 321 321 320 320 320 319 319 319 320 321 322 322 322 320 318 317 318 319 321 321 323
234 232 232 233 236 240 244 248 252 255 258 261 261 262 263 265 266 269 271 274 278 281 284 288 290 292 295 296 296 297 297 297 298 300 303 306 308 310 311 311 312 312 314 315 316 316 318 319 319 319 319 319 319 319 320 321 321 321 322 322 322 321 319 317 317 318 320 322 324
233 231 230 232 235 239 243 247 252 255 258 260 261 263 265 268 270 272 274 277 280 284 287 290 291 293 295 295 296 296 296 297 298 300 302 305 308 309 310 311 311 312 312 313 314 315 316 317 317 317 317 318 318 319 321 322 322 322 322 323 323 323 321 319 319 320 321 323 325
232 230 230 231 235 238 243 247 251 254 257 258 261 264 267 271 273 275 277 280 283 286 289 291 292 293 293 294 294 295 295 296 298 300 302 305 307 308 309 310 310 311 311 312 312 313 314 315 316 316 316 316 316 317 320 322 323 323 322 322 323 324 324 323 324 324 324 324 326
229 228 229 231 235 239 243 247 250 253 256 258 261 265 268 272 274 276 278 281 285 288 289 290 290 291 292 292 293 294 295 296 298 300 302 304 306 308 309 310 310 310 310 310 311 311 312 313 314 315 315 315 315 317 319 322 322 322 322 322 322 323 324 325 327 327 326 326 325
227 226 227 230 235 239 243 246 249 252 255 259 261 265 267 269 272 275 278 283 286 287 287 287 288 289 290 291 291 292 294 295 297 299 302 304 305 307 308 309 309 309 309 309 309 310 311 312 313 314 315 316 316 317 319 321 321 321 321 320 320 321 323 325 327 327 327 326 325
227 227 228 231 235 238 242 245 248 251 255 258 261 263 265 267 270 273 277 280 282 282 283 284 286 287 288 289 290 292 293 295 297 299 301 303 304 306 307 308 308 308 307 307 308 309 310 311 312 313 315 316 316 317 318 320 320 319 319 319 319 320 321 323 325 326 325 324 323
227 228 230 233 235 237 240 243 247 250 254 257 260 263 265 268 270 273 275 276 277 279 280 282 284 286 287 289 290 292 293 295 297 298 300 302 304 305 306 307 307 307 306 306 307 308 309 310 311 312 313 314 315 315 316 317 317 317 317 317 317 318 319 320 322 323 323 323 322
228 229 231 233 234 236 239 242 246 250 253 257 260 263 266 268 270 272 273 274 275 277 279 282 283 285 287 289 291 293 294 295 297 298 299 301 303 304 305 306 306 306 306 306 307 308 309 309 310 311 312 312 313 313 314 314 314 314 314 314 315 315 316 316 317 318 319 320 320
229 230 231 231 232 234 237 241 246 249 253 256 259 263 266 268 269 270 271 273 275 278 281 284 285 287 289 291 292 294 295 296 297 297 299 300 302 303 305 305 306 307 307 307 308 309 309 309 310 310 310 311 311 311 311 311 311 311 311 311 311 311 311 311 312 314 316 317 318
230 231 231 230 230 232 236 240 244 249 252 256 259 262 265 267 269 270 272 274 277 281 284 286 288 290 292 293 294 295 296 296 296 297 298 299 301 302 304 305 306 307 308 308 309 310 309 309 310 310 310 310 310 310 309 309 308 308 307 307 306 305 305 305 307 309 311 313 314
230 230 229 228 229 231 235 239 243 247 251 254 258 261 264 267 270 272 274 277 280 284 287 289 291 293 294 295 296 296 297 296 296 297 297 298 300 301 303 304 305 306 308 309 309 310 310 310 310 309 309 309 308 308 307 307 307 306 305 304 301 299 298 299 302 305 308 310 310
229 229 228 227 228 230 234 238 242 246 250 254 258 262 265 268 271 273 276 279 283 286 288 289 292 294 295 296 297 297 297 296 296 296 296 297 299 300 302 303 304 306 308 309 309 309 310 310 310 310 309 308 308 307 306 306 306 306 305 303 298 294 292 293 297 301 304 306 306
229 228 226 226 227 230 233 237 241 245 249 254 258 262 266 269 272 274 277 280 283 285 287 289 291 293 294 295 296 296 296 296 296 296 296 297 298 299 300 302 303 306 307 308 308 308 309 309 310 309 309 308 307 306 305 305 306 306 305 303 297 291 287 288 292 296 299 301 302
228 226 225 225 227 229 232 236 240 245 250 255 259 263 266 269 272 275 277 279 281 284 286 288 290 292 293 294 296 296 296 296 296 296 297 297 298 299 300 301 303 305 307 307 307 307 308 308 309 309 309 308 306 305 305 305 305 306 305 302 297 290 286 286 288 292 295 298 299
227 226 225 225 226 228 231 235 240 245 250 255 259 262 265 268 271 274 276 278 280 283 284 286 289 291 293 295 296 297 297 297 296 296 297 298 298 299 300 302 304 305 306 306 306 306 307 307 308 308 308 307 306 304 304 304 304 304 304 302 298 292 288 286 287 289 292 295 296
227 226 225 226 226 228 230 235 240 245 250 254 257 261 264 267 270 272 275 278 280 281 283 285 288 292 294 297 297 298 298 298 298 298 298 299 299 300 302 303 304 305 305 305 305 305 306 306 307 307 307 306 304 303 303 302 302 303 303 302 300 297 293 290 289 289 291 293 295
227 226 226 225 226 227 230 234 239 244 248 252 256 260 263 266 269 272 274 276 278 280 282 286 290 294 296 298 300 300 300 300 300 299 299 300 301 302 303 304 305 304 304 304 304 305 305 306 306 306 305 304 302 302 301 301 302 302 302 303 302 301 299 296 293 291 292 293 294
226 225 225 224 225 226 229 234 238 243 247 251 255 259 263 266 269 271 272 274 275 279 283 289 294 297 300 301 302 302 302 302 301 301 301 301 302 303 304 305 304 304 304 304 304 305 305 305 305 304 303 301 300 300 301 301 302 302 302 302 302 302 300 298 295 294 293 294 294
225 224 224 223 223 225 228 233 237 242 246 250 254 259 263 266 268 269 270 270 274 279 286 293 298 301 304 304 304 304 303 303 303 303 304 304 304 304 305 305 304 304 304 304 305 304 303 303 302 301 300 299 299 300 301 302 302 302 301 301 301 300 299 298 296 294 293 293 294
224 223 222 222 223 225 228 232 236 240 245 249 254 259 262 265 266 266 267 268 273 281 290 296 301 304 306 306 306 306 305 305 305 306 306 306 306 306 305 305 304 304 304 305 305 302 300 299 299 299 299 300 300 301 301 301 301 301 300 299 298 297 296 295 295 294 293 293 294
223 222 221 222 223 225 228 232 236 240 244 249 253 257 261 262 263 263 264 268 274 283 292 298 302 305 306 307 307 307 307 307 308 307 307 307 307 306 306 305 305 305 306 306 304 301 300 300 300 300 301 302 302 302 301 300 299 299 298 297 296 294 292 292 292 293 294 295 296
221 221 221 222 223 226 229 232 236 240 243 247 251 256 258 259 259 259 261 267 275 284 292 297 301 304 306 306 307 308 309 309 310 309 308 307 307 306 306 306 306 307 308 308 304 302 302 302 302 302 302 302 302 301 300 299 298 298 297 295 294 292 290 289 290 291 293 295 297
220 220 221 222 224 226 229 233 236 239 241 245 250 254 256 256 256 257 260 266 275 283 291 297 301 304 305 305 306 308 310 311 311 310 309 308 307 307 307 308 309 310 310 308 305 304 304 304 304 303 303 302 302 301 300 299 298 297 296 294 292 290 289 288 288 289 291 293 295
220 220 221 222 224 227 230 232 234 237 240 243 248 252 254 254 254 255 259 265 273 281 289 297 301 303 303 304 306 308 310 310 310 310 309 309 308 308 309 310 311 313 313 309 307 306 306 305 304 304 303 303 303 302 301 299 298 297 295 294 292 290 288 287 287 287 288 290 292
220 221 221 223 225 227 229 231 233 235 238 241 246 249 252 252 252 254 258 265 272 281 289 297 299 299 300 302 305 307 308 309 310 310 310 309 309 309 310 312 313 315 315 313 309 307 307 306 305 304 304 304 304 303 301 299 298 297 295 293 292 290 288 287 286 286 286 287 288
220 221 222 224 226 228 229 231 231 232 235 239 244 248 249 250 250 253 257 265 274 282 289 294 295 296 299 301 303 305 306 308 309 310 310 309 309 310 312 313 314 315 316 314 311 308 308 307 306 305 305 305 305 303 302 300 299 298 297 296 294 292 290 289 287 286 285 286 287
221 222 223 224 226 228 228 229 229 230 233 238 242 245 247 248 249 252 257 264 273 281 286 290 292 294 298 300 303 304 306 307 309 309 310 310 310 311 312 313 314 316 316 314 310 309 309 308 307 307 306 306 306 305 304 302 301 300 299 298 296 295 293 291 289 288 287 287 288
221 222 223 224 225 226 226 226 226 228 231 236 240 243 245 246 249 251 256 262 270 278 283 287 290 293 296 299 302 304 305 306 308 309 311 311 312 312 313 313 314 315 315 313 310 310 310 309 309 308 308 308 307 306 305 304 303 301 300 298 297 296 295 294 293 291 290 290 290
221 221 222 223 224 224 224 223 224 226 230 235 239 241 243 245 247 251 255 261 269 276 281 285 288 291 295 297 300 301 304 306 308 310 311 312 313 313 312 313 314 316 316 313 311 310 310 310 310 310 310 310 309 308 306 305 303 301 299 298 298 298 298 298 298 297 295 295 295
220 220 220 221 222 221 221 221 222 225 229 234 237 239 240 242 245 250 255 262 269 275 279 283 286 290 293 295 297 300 302 305 308 310 312 313 313 312 312 313 315 317 316 313 312 311 311 312 311 312 312 312 310 308 306 305 303 301 300 301 302 303 305 307 306 305 304 303 303
218 218 219 219 219 219 219 220 221 224 229 232 235 237 238 241 244 249 255 262 269 273 277 281 285 288 290 293 296 299 302 305 308 310 311 312 312 312 312 313 315 317 318 316 314 313 313 313 313 314 314 313 310 308 306 305 304 305 306 309 311 314 317 320 320 318 317 317 317
218 217 217 217 218 218 218 219 221 224 228 231 233 235 238 241 245 249 254 260 266 271 275 279 283 286 289 293 297 300 303 305 307 308 310 311 311 311 311 313 315 317 318 317 315 314 314 315 315 316 316 314 312 310 309 308 310 314 319 324 327 329 331 332 333 333 333 333 332
217 216 216 216 217 217 217 218 221 224 227 230 232 234 237 241 245 249 252 257 263 269 274 279 282 285 290 294 298 301 303 304 306 307 308 309 310 311 311 311 313 315 317 317 316 315 315 316 317 317 317 316 314 313 312 314 319 328 335 337 337 338 341 344 345 345 344 343 340
215 215 215 216 216 217 217 219 221 224 226 229 231 234 237 240 245 249 252 256 262 268 274 278 281 285 290 295 298 300 301 303 304 305 306 308 310 310 310 309 310 313 316 317 316 316 316 317 318 319 319 319 317 317 317 321 330 341 344 344 343 345 349 352 352 350 348 346 344
214 214 215 215 216 216 218 219 221 224 226 229 231 233 236 240 245 250 254 258 262 267 272 276 281 285 290 294 296 298 299 301 303 305 306 308 309 310 309 308 310 313 316 318 319 318 318 318 319 320 321 322 321 321 322 328 341 349 349 349 350 353 355 356 354 353 351 350 349
214 214 214 215 216 217 218 220 222 224 226 228 231 233 237 241 247 252 255 259 262 266 270 275 279 284 288 291 293 295 297 300 303 305 307 309 310 310 310 310 312 314 316 318 320 321 320 320 320 322 323 324 324 324 326 335 348 353 352 352 355 358 358 356 356 355 355 354 353
Height
856 856 856 856 856 856 856 856 856 856 856 856 855 855 855 855 855 855 855 855 855 855 854 854 854 854 853 853 853 853 852 851 851 850 850 849 848 847 846 846 845 844 843 843 842 841 840 839 837 836 835 833 832 831 829 828 827 825 823 822 820 818 816 814 812 810 808 806 805
855 855 855 855 855 855 855 855 855 855 854 854 854 854 854 854 854 854 853 854 853 853 853 853 853 852 852 852 852 851 851 850 850 849 848 847 847 846 845 845 844 843 842 841 841 840 839 837 836 835 833 832 831 829 828 827 826 824 822 821 819 817 815 813 811 809 807 806 804
853 854 854 854 854 854 853 853 853 853 853 853 853 853 853 852 852 852 852 852 852 852 852 851 851 851 851 851 851 850 850 849 848 847 847 846 846 845 844 843 842 842 841 840 840 839 837 836 835 834 832 831 830 828 827 825 824 823 821 820 818 816 815 812 811 809 807 805 803
852 852 852 852 852 852 852 852 852 852 852 852 852 852 851 851 851 851 851 851 851 851 851 850 850 850 850 849 849 849 848 848 847 846 846 845 844 843 843 842 841 840 840 839 838 837 836 836 834 833 831 830 828 827 826 825 823 822 820 819 817 816 814 812 810 808 806 804 803
851 851 851 851 851 851 851 851 851 851 851 851 851 850 850 850 850 850 850 849 849 849 849 849 849 848 848 848 847 847 847 846 846 845 844 843 843 842 841 841 840 839 838 838 837 836 835 834 833 831 830 829 827 826 825 824 822 821 819 817 816 815 813 811 809 807 806 804 802
849 849 849 850 850 850 850 850 850 850 850 850 849 849 849 849 848 848 848 848 848 848 848 848 847 847 847 846 846 846 845 845 844 843 843 842 841 841 840 839 838 838 837 836 836 835 834 833 832 831 829 828 826 825 824 823 821 820 818 816 815 813 812 810 809 807 805 803 801
848 848 848 848 848 849 849 849 849 849 848 848 848 847 847 847 847 847 847 846 846 846 846 846 846 846 846 845 845 844 844 843 843 842 841 841 840 839 838 837 837 836 836 835 834 834 833 832 831 829 828 827 825 824 822 821 820 819 817 815 813 812 811 809 808 806 805 802 801
846 846 847 847 847 847 847 847 847 847 847 847 846 846 846 846 846 846 845 845 845 845 845 845 845 844 844 844 843 843 842 842 841 841 840 839 838 838 837 836 836 835 834 834 833 832 831 831 829 828 827 826 824 823 821 820 819 817 816 814 812 811 810 808 807 806 804 802 800
845 845 845 846 846 846 846 846 846 846 846 845 845 845 845 845 844 844 844 844 844 844 844 843 843 843 843 842 842 841 841 840 840 839 838 838 837 836 836 835 834 833 833 832 832 831 830 829 828 827 826 824 823 821 820 819 818 816 815 813 811 810 809 807 806 805 803 801 800
843 843 844 844 844 845 845 845 845 845 844 844 844 844 843 843 843 843 842 842 842 842 842 842 842 841 841 841 840 840 840 839 838 837 837 836 836 835 834 833 833 832 831 831 830 830 829 828 826 825 824 823 822 821 819 818 816 815 814 812 811 809 808 806 805 804 802 801 799
842 842 842 843 843 843 843 843 843 843 843 843 842 842 842 842 842 841 841 841 841 841 841 841 840 840 840 839 839 838 838 837 837 836 836 835 834 833 832 832 831 831 830 829 829 828 827 826 825 824 823 821 821 819 818 816 816 814 813 811 810 808 807 805 804 803 801 800 798
840 841 841 841 842 842 842 842 842 842 842 841 841 841 841 841 840 840 840 840 840 839 839 839 839 838 838 838 837 837 836 836 835 835 834 833 832 832 831 830 830 829 828 828 827 827 826 825 824 822 821 820 819 818 816 815 814 813 811 810 809 807 806 804 803 802 800 799 797
839 839 840 840 840 841 841 841 841 841 840 840 840 840 839 839 839 839 839 838 838 838 838 837 837 837 836 836 836 836 835 835 834 833 832 832 831 830 830 829 828 827 827 826 826 825 824 823 822 821 820 819 817 816 815 814 813 811 810 809 807 806 805 803 802 801 799 798 796
837 838 838 838 839 839 839 839 839 839 839 839 838 838 838 838 838 837 837 837 836 836 836 836 836 836 835 835 834 834 833 833 832 832 831 830 829 829 828 827 826 826 826 825 824 824 823 822 821 820 819 817 816 815 814 813 811 810 809 808 806 805 803 802 801 799 798 796 795
836 836 836 837 837 837 837 837 837 837 837 837 837 837 837 836 836 836 836 836 835 835 835 834 834 834 834 833 833 832 832 831 831 830 829 829 828 827 826 826 825 825 824 823 823 822 821 821 819 818 817 816 815 813 812 811 810 809 807 806 805 804 802 801 800 798 797 795 793
834 835 835 835 835 836 836 836 836 836 836 836 836 836 836 835 835 835 835 834 834 833 833 833 832 832 832 831 831 831 830 830 829 829 828 827 826 826 825 824 824 823 822 822 821 820 820 819 818 817 816 815 813 812 810 809 808 807 806 805 804 802 801 800 798 797 796 794 792
833 833 833 833 834 834 834 834 835 835 835 835 835 834 834 834 834 833 833 833 832 832 831 831 831 831 830 830 830 829 829 828 827 827 826 826 825 824 823 823 822 821 821 820 819 818 818 817 816 816 814 813 812 810 809 807 806 805 803 802 802 801 800 798 797 796 794 793 791
831 831 831 831 832 832 832 833 833 833 833 833 833 833 833 832 832 832 831 831 831 830 830 830 829 829 829 828 828 828 827 827 826 825 825 824 823 822 822 821 820 820 819 818 818 817 816 815 815 814 813 811 810 808 807 805 804 802 801 800 799 798 797 796 795 794 793 791 789
829 829 830 830 830 830 831 831 831 831 832 832 832 831 831 831 831 830 830 830 829 829 829 828 828 827 827 827 826 826 826 825 824 824 823 822 822 821 820 819 819 818 817 817 816 815 815 814 813 812 811 810 808 807 805 804 802 801 799 798 797 796 795 794 793 792 791 789 787
827 827 828 828 828 829 829 830 830 830 830 830 830 830 830 830 829 829 828 828 828 828 827 827 826 826 826 825 825 824 824 823 823 822 821 821 820 819 818 818 817 816 816 815 814 814 813 812 811 811 809 808 806 805 803 802 800 799 797 796 795 794 793 792 791 790 788 787 785
825 826 826 826 827 827 827 828 828 829 829 829 829 829 828 828 828 827 827 827 826 826 826 825 825 824 824 824 823 823 822 822 821 821 820 819 818 818 817 816 816 815 814 813 813 812 811 811 810 809 807 806 804 803 801 800 798 797 796 794 793 792 791 790 789 787 786 785 783
823 824 824 825 825 826 826 826 827 827 827 827 827 827 827 827 826 826 826 825 825 825 824 824 823 823 823 822 821 821 821 820 819 819 818 817 817 816 815 815 814 813 812 811 811 810 810 809 808 807 806 804 802 801 799 798 796 795 793 792 791 790 789 787 786 785 784 782 780
821 822 823 823 824 824 825 825 825 825 826 826 826 826 826 825 825 825 824 824 824 823 823 822 822 822 821 821 820 820 819 818 818 817 816 816 815 815 814 813 812 811 811 810 809 809 808 807 806 805 803 802 800 799 797 796 795 793 792 790 789 787 786 785 784 782 781 779 778
820 821 821 822 822 822 823 823 823 824 824 824 824 824 824 824 823 823 823 822 822 822 821 821 821 820 820 819 819 818 817 817 816 815 815 814 814 813 812 812 811 810 809 808 808 807 806 805 804 803 801 800 799 797 796 794 793 791 790 788 787 785 784 782 781 780 778 776 775
818 819 820 820 820 821 821 821 821 822 822 822 823 823 822 822 822 822 821 821 821 820 820 820 819 819 818 818 817 817 816 816 815 814 813 813 812 811 811 810 809 808 808 807 806 806 805 805 803 801 800 799 797 796 794 793 791 790 788 786 785 783 781 779 778 776 775 774 772
816 817 818 818 818 819 819 819 820 820 821 821 821 821 821 821 821 820 820 820 819 819 818 818 818 817 817 816 816 815 815 814 814 813 812 811 811 810 809 808 807 807 806 805 805 804 804 803 802 800 799 797 796 794 792 791 789 787 786 784 782 781 779 777 775 774 772 771 770
815 815 816 816 816 817 817 817 818 818 819 819 819 820 820 819 819 819 818 818 818 817 817 817 816 816 816 815 815 814 813 813 812 811 811 810 809 808 807 807 806 805 804 804 803 803 802 801 800 799 797 796 794 792 791 789 787 785 783 781 780 778 777 775 774 772 771 769 768
812 813 813 814 815 815 815 816 816 817 817 817 818 818 818 818 817 817 817 816 816 816 816 815 815 815 814 814 813 812 812 811 811 810 810 809 808 807 806 805 804 803 803 802 802 801 800 799 798 797 796 794 792 791 789 786 785 782 781 779 778 776 775 774 772 771 769 768 766
810 811 811 812 812 813 813 814 815 815 816 816 816 816 816 816 816 816 815 815 815 814 814 814 814 813 813 812 812 811 811 810 810 809 808 807 806 806 805 804 803 802 801 801 800 799 799 797 796 795 794 792 791 789 786 784 782 780 779 777 776 775 773 772 771 769 767 766 764
808 808 809 810 810 811 811 812 813 813 814 814 815 815 815 815 814 814 814 814 813 813 813 812 812 812 811 811 810 810 809 809 808 807 807 806 805 804 803 802 801 800 800 799 798 798 797 796 795 793 792 791 789 787 785 782 780 779 777 776 775 773 771 770 769 767 766 764 762
805 806 807 807 808 809 810 810 811 812 812 813 813 813 813 813 813 812 812 812 812 811 811 811 811 810 810 809 809 808 808 807 807 806 806 805 804 802 801 801 800 799 798 797 797 796 795 794 793 792 790 789 787 785 783 781 779 777 776 775 773 771 770 768 766 765 763 762 761
803 804 805 805 806 807 808 809 809 810 811 811 811 811 811 811 811 811 811 811 810 810 810 810 809 809 808 808 807 807 806 806 805 805 804 803 802 801 800 799 798 797 796 796 795 795 794 793 791 790 788 787 785 783 781 779 777 776 775 773 771 769 768 766 764 762 761 760 759
801 801 802 803 804 805 806 807 807 808 808 809 809 809 809 809 809 809 809 809 809 809 808 808 808 807 807 806 806 806 805 804 804 803 803 802 801 800 799 797 796 796 795 795 794 793 792 791 790 788 787 785 783 781 779 777 776 774 773 771 769 767 766 764 762 761 759 758 757
799 799 800 801 801 803 804 805 806 806 806 807 807 807 807 808 808 808 808 807 807 807 807 807 806 806 806 805 805 804 803 803 802 802 801 801 800 799 797 796 795 794 794 793 792 791 791 790 788 787 785 783 781 779 778 776 774 772 771 769 767 766 764 763 761 759 757 756 755
796 797 797 798 799 801 802 803 803 804 805 805 805 805 806 806 806 806 806 806 806 806 806 805 805 805 805 804 804 803 802 802 801 801 800 799 798 797 796 795 793 793 792 792 791 790 789 788 787 785 784 782 780 778 776 774 772 770 769 767 766 764 763 761 760 758 756 755 754
794 795 795 796 797 798 800 801 801 802 802 803 803 803 804 804 804 804 805 805 805 805 804 804 804 804 803 803 802 802 801 801 800 799 799 798 797 796 795 793 792 791 791 790 789 789 787 786 785 784 782 781 778 776 774 772 770 769 767 766 765 763 762 761 759 757 756 755 754
791 792 793 794 795 796 797 798 799 800 800 800 801 801 802 802 803 803 803 803 803 803 802 802 802 802 802 801 801 800 800 800 799 798 797 797 796 795 793 792 791 790 789 789 788 787 786 785 784 783 781 779 777 775 772 771 769 768 766 765 764 762 761 760 758 757 756 755 754
789 790 791 792 793 794 795 796 797 797 798 798 799 800 800 801 801 801 801 802 802 801 801 801 801 801 800 800 800 799 798 798 798 797 796 796 795 794 793 791 790 789 788 787 787 786 785 784 783 781 780 778 776 773 771 769 768 767 766 764 763 761 761 759 758 757 756 754 753
787 788 789 790 791 792 793 794 794 795 796 796 797 798 799 799 799 800 800 800 800 800 800 799 799 799 799 799 798 797 797 796 796 796 796 795 794 793 792 791 789 788 787 786 786 785 784 783 782 781 779 777 775 772 770 768 767 766 765 763 762 761 760 759 757 756 755 753 752
785 786 787 788 789 790 791 791 792 793 794 795 796 796 797 797 798 798 798 799 799 799 798 798 798 798 798 798 797 796 796 795 795 795 794 794 793 792 791 790 788 787 786 786 785 784 783 782 781 780 778 776 774 771 770 768 767 765 764 762 761 760 759 758 757 756 754 753 751
783 784 785 786 786 787 788 789 790 791 792 793 794 794 795 796 796 797 797 797 797 797 797 797 796 796 796 796 796 795 794 794 793 793 793 792 791 791 790 789 787 786 785 784 784 783 782 781 780 779 777 776 773 771 769 767 766 764 763 762 761 760 759 757 756 755 754 752 751